Location: Alexandria
(38.8050°N, 77.0470°W)
Time: 10:03:39
(UTC-05:00)

Amateur Radio Satellites - All Passes

Search period start: 16 December 2017 09:33
Search period end: 17 December 2017 09:33
Location: Alexandria, 38.8050°N, 77.0470°W

Satellite Date Start Highest point End Downlink Frequencies (MHz)
Time Altitude Azimuth
nSIGHT-1 16 Dec 09:59:15 10:02:05 29° 134° (SE) 10:04:57 .
QB50P2 16 Dec 10:08:00 10:10:14 14° 65° (ENE) 10:12:27 145.880/145.840
DUCHIFAT 1 16 Dec 10:12:22 10:12:29 10° 63° (ENE) 10:12:36 145.980
NANOSAT C BR1 16 Dec 10:36:25 10:39:42 23° 69° (ENE) 10:42:59 145.865
TIGRISAT 16 Dec 10:37:29 10:38:34 11° 269° (W) 10:39:39 435.000
Max Valier Satellite 16 Dec 10:41:46 10:44:53 25° 289° (WNW) 10:47:59 145.860
PRISM 16 Dec 10:43:06 10:46:38 26° 264° (W) 10:50:10 437.425
ISS 16 Dec 10:47:21 10:50:38 76° 139° (SE) 10:53:55 437.550
EO-79 16 Dec 10:52:17 10:56:11 39° 72° (ENE) 11:00:06 145.935-145.965
DELFI C3 16 Dec 10:55:50 10:57:54 14° 294° (WNW) 10:59:58 145.870
AIST 2D 16 Dec 11:02:36 11:05:53 38° 262° (W) 11:09:12 435.315
EO-88 16 Dec 11:05:45 11:08:24 19° 291° (WNW) 11:11:03 145.990 - 145.960
ESTCUBE 1 16 Dec 11:14:19 11:18:37 41° 98° (E) 11:22:53 437.505/2401.250
POLYITAN 1 16 Dec 11:15:30 11:19:39 75° 77° (ENE) 11:23:51 437.675
Oscar 19 16 Dec 11:28:46 11:31:14 14° 61° (ENE) 11:33:43 437.125/150
LO-87 16 Dec 11:29:22 11:32:55 84° 285° (WNW) 11:36:28 145.935 - 145.965
SPROUT 16 Dec 11:31:05 11:33:13 13° 92° (E) 11:35:20 437.525
nSIGHT-1 16 Dec 11:35:26 11:38:16 28° 330° (NNW) 11:41:07 .
NO-84 16 Dec 11:35:53 11:37:58 14° 27° (NNE) 11:40:07 435.350 FM
AO-91 16 Dec 11:37:39 11:39:56 14° 67° (ENE) 11:42:08 145.960
QB50P2 16 Dec 11:41:33 11:45:36 46° 261° (W) 11:49:39 145.880/145.840
DUCHIFAT 1 16 Dec 11:43:25 11:47:33 67° 259° (W) 11:51:42 145.980
RS-15 16 Dec 11:55:05 11:58:54 12° 94° (E) 12:02:41 29.354- 29.394
NANOSAT C BR1 16 Dec 12:11:42 12:15:15 27° 264° (W) 12:18:49 145.865
BUGSAT 1 16 Dec 12:16:30 12:20:30 63° 75° (ENE) 12:24:29 437.445
Gurwin Techsat 1B 16 Dec 12:23:09 12:27:50 33° 68° (ENE) 12:32:33 435.225
ISS 16 Dec 12:25:06 12:27:25 18° 337° (NNW) 12:29:46 437.550
EO-79 16 Dec 12:29:34 12:32:05 15° 267° (W) 12:34:36 145.935-145.965
VELOX 1 16 Dec 12:39:24 12:43:40 47° 100° (E) 12:47:53 145.980
AO-7 16 Dec 12:45:38 12:50:41 18° 51° (NE) 12:55:44 .
ESTCUBE 1 16 Dec 12:51:59 12:55:05 18° 294° (WNW) 12:58:10 437.505/2401.250
Oscar 19 16 Dec 13:04:46 13:09:53 74° 258° (WSW) 13:15:03 437.125/150
SPROUT 16 Dec 13:05:15 13:09:19 46° 287° (WNW) 13:13:23 437.525
UKube-1 16 Dec 13:11:05 13:12:48 12° 92° (E) 13:14:32 .
AO-91 16 Dec 13:11:09 13:16:01 60° 258° (WSW) 13:20:25 145.960
NO-84 16 Dec 13:11:55 13:15:43 77° 44° (NE) 13:19:46 435.350 FM
YUBILEINY 16 Dec 13:24:54 13:33:17 45° 75° (ENE) 13:41:33 435.215
DX 1 16 Dec 13:29:08 13:33:05 33° 98° (E) 13:36:59 434.975-435.025
50 SAT 16 Dec 13:35:06 13:38:04 38° 100° (E) 13:41:00 437.505
RS-15 16 Dec 13:56:49 14:08:50 64° 113° (ESE) 14:20:50 29.354- 29.394
Gurwin Techsat 1B 16 Dec 14:03:10 14:07:44 29° 264° (W) 14:12:21 435.225
VELOX 1 16 Dec 14:17:08 14:19:40 15° 295° (WNW) 14:22:12 145.980
ITAMSAT 1 16 Dec 14:21:47 14:26:24 33° 68° (ENE) 14:31:01 435.822/435.867
ITUPSAT 1 16 Dec 14:26:15 14:28:13 12° 91° (E) 14:30:10 437.325
AO-7 16 Dec 14:33:52 14:42:09 80° 70° (ENE) 14:50:30 .
M-CUBED/EXP-1 PRIME 16 Dec 14:38:19 14:42:39 80° 71° (ENE) 14:47:15 437.505
SO-50 16 Dec 14:40:37 14:44:58 57° 118° (ESE) 14:49:23 436.795
DOVE 4 16 Dec 14:43:52 14:44:27 10° 61° (ENE) 14:45:03 437.250
UKube-1 16 Dec 14:44:55 14:49:06 53° 287° (WNW) 14:53:17 .
NO-84 16 Dec 14:50:59 14:52:36 12° 237° (WSW) 14:54:16 435.350 FM
MOZHAYETS 4 16 Dec 14:53:15 14:57:35 39° 98° (E) 15:01:54
DX 1 16 Dec 15:05:50 15:09:00 20° 293° (WNW) 15:12:10 434.975-435.025
YUBILEINY 16 Dec 15:22:00 15:29:50 38° 274° (W) 15:37:37 435.215
BEESAT 16 Dec 15:31:53 15:36:38 65° 102° (ESE) 15:41:21 436.000
ISS 16 Dec 15:40:54 15:42:40 14° 18° (NNE) 15:44:26 437.550
ITAMSAT 1 16 Dec 16:01:23 16:05:50 28° 264° (W) 16:10:17 435.822/435.867
ITUPSAT 1 16 Dec 16:01:41 16:06:25 63° 286° (WNW) 16:11:08 437.325
CUTE-I 16 Dec 16:05:35 16:07:29 12° 59° (ENE) 16:09:23 437.470
RS-15 16 Dec 16:10:27 16:21:58 43° 316° (NW) 16:33:23 29.354- 29.394
DOVE 4 16 Dec 16:16:04 16:21:21 83° 76° (ENE) 16:26:29 437.250
XW-2B 16 Dec 16:18:13 16:19:23 11° 65° (ENE) 16:20:34 145.730 - 145.750
CUBESAT XI-V 16 Dec 16:21:50 16:26:35 82° 102° (ESE) 16:31:16 437.345
SO-50 16 Dec 16:22:45 16:25:46 18° 316° (NW) 16:28:50 436.795
nSIGHT-1 16 Dec 16:26:58 16:29:49 28° 30° (NNE) 16:32:38 .
XW-2F 16 Dec 16:27:30 16:29:29 14° 66° (ENE) 16:31:26 145.980 - 146.000
KKS-1 16 Dec 16:28:53 16:31:37 16° 93° (E) 16:34:19 437.445
AO-7 16 Dec 16:30:00 16:35:41 20° 267° (W) 16:41:25 .
MOZHAYETS 4 16 Dec 16:31:06 16:34:27 20° 293° (WNW) 16:37:47
XW-2C 16 Dec 16:43:39 16:46:42 23° 70° (ENE) 16:49:45 145.795 - 145.815
HO-68 16 Dec 16:51:24 16:56:36 22° 58° (ENE) 17:01:47 435.675
STARS 16 Dec 17:05:48 17:08:24 15° 93° (E) 17:10:59 437.465
O/OREOS (USA 219) 16 Dec 17:08:59 17:12:45 26° 60° (ENE) 17:16:29 437.305
BEESAT 16 Dec 17:11:33 17:13:50 13° 298° (WNW) 17:16:06 436.000
ISS 16 Dec 17:16:27 17:19:42 59° 36° (NE) 17:22:56 437.550
LilacSat-2 16 Dec 17:21:57 17:25:45 80° 77° (ENE) 17:29:37 437.200
NUDT-PHONESAT 16 Dec 17:28:15 17:31:52 56° 75° (ENE) 17:35:31 437.300
XW-2D 16 Dec 17:33:18 17:37:05 76° 258° (WSW) 17:40:55 145.860 - 145.880
KAITUO 1B 16 Dec 17:35:50 17:39:33 77° 78° (ENE) 17:43:20 145.475/437.950
SEEDS 16 Dec 17:37:05 17:39:38 16° 66° (ENE) 17:42:11 437.485
CUBEBUG 2 16 Dec 17:39:06 17:41:39 16° 67° (ENE) 17:44:10 437.445
CUTE-I 16 Dec 17:41:20 17:46:43 89° 256° (WSW) 17:52:07 437.470
PCSat 16 Dec 17:43:16 17:48:23 45° 112° (ESE) 17:53:33 145.827
XW-2B 16 Dec 17:49:26 17:53:05 48° 261° (W) 17:56:47 145.730 - 145.750
DOVE 4 16 Dec 17:58:18 17:59:29 11° 271° (W) 18:00:40 437.250
XW-2F 16 Dec 17:59:42 18:03:12 37° 262° (W) 18:06:46 145.980 - 146.000
CUBESAT XI-V 16 Dec 18:02:21 18:03:13 10° 299° (WNW) 18:04:04 437.345
CUTE 1.7 + AOD 2 16 Dec 18:02:35 18:06:41 50° 74° (ENE) 18:10:51 437.475
nSIGHT-1 16 Dec 18:03:08 18:06:00 30° 226° (SW) 18:08:50 .
KKS-1 16 Dec 18:04:09 18:08:20 42° 288° (WNW) 18:12:30 437.445
XW-2C 16 Dec 18:17:51 18:20:47 21° 265° (W) 18:23:44 145.795 - 145.815
AO-73 16 Dec 18:27:18 18:29:18 13° 65° (ENE) 18:31:19 145.935
RS-15 16 Dec 18:30:49 18:39:02 20° 348° (NNW) 18:47:05 29.354- 29.394
HO-68 16 Dec 18:36:26 18:43:36 72° 256° (WSW) 18:50:49 435.675
STARS 16 Dec 18:40:47 18:44:55 43° 288° (WNW) 18:49:01 437.465
O/OREOS (USA 219) 16 Dec 18:48:16 18:52:04 28° 257° (WSW) 18:55:52 437.305
ISS 16 Dec 18:54:13 18:55:49 13° 231° (SW) 18:57:24 437.550
XW-2A 16 Dec 19:01:38 19:04:55 59° 76° (ENE) 19:08:15 145.665 - 145.685
UWE-3 16 Dec 19:08:33 19:12:42 87° 258° (WSW) 19:16:52 435.000/436.395/437.385
SEEDS 16 Dec 19:10:56 19:14:56 42° 262° (W) 19:18:59 437.485
CUBEBUG 2 16 Dec 19:14:01 19:17:57 39° 262° (W) 19:21:51 437.445
STRAND 1 16 Dec 19:14:58 19:19:51 45° 99° (E) 19:24:42 437.568
AAUSAT CUBESAT 2 16 Dec 19:22:35 19:26:45 76° 260° (W) 19:30:57 437.432
PCSat 16 Dec 19:27:30 19:31:58 26° 309° (NW) 19:36:28 145.827
ZACube-1 16 Dec 19:28:25 19:32:32 80° 75° (ENE) 19:36:42 437.345
BEESAT 3 16 Dec 19:31:46 19:35:44 88° 120° (ESE) 19:39:45 437.485
CUTE 1.7 + AOD 2 16 Dec 19:40:59 19:42:47 12° 269° (W) 19:44:36 437.475
Oscar 11 16 Dec 19:43:51 19:48:07 67° 76° (ENE) 19:52:26 .
AO-73 16 Dec 20:01:08 20:05:06 47° 261° (W) 20:09:06 145.935
DELFI C3 16 Dec 20:04:04 20:06:59 20° 69° (ENE) 20:09:56 145.870
BEESAT 2 16 Dec 20:17:17 20:21:16 73° 120° (ESE) 20:25:19 435.950
FO-29 16 Dec 20:19:20 20:25:58 58° 99° (E) 20:31:46 435.910
FALCONSAT 3 16 Dec 20:24:30 20:26:40 15° 154° (SSE) 20:28:51 435.103
HO-68 16 Dec 20:31:54 20:32:25 10° 273° (W) 20:32:56 435.675
RS-15 16 Dec 20:48:25 20:57:42 25° 25° (NNE) 21:06:35 29.354- 29.394
TIGRISAT 16 Dec 20:51:21 20:53:26 13° 92° (E) 20:55:32 435.000
UNISAT 6 16 Dec 20:54:44 20:57:27 16° 93° (E) 21:00:13 437.425
STRAND 1 16 Dec 20:54:58 20:58:41 21° 295° (WNW) 21:02:25 437.568
BEESAT 3 16 Dec 21:12:57 21:13:50 11° 318° (NW) 21:14:44 437.485
Max Valier Satellite 16 Dec 21:18:10 21:21:47 73° 259° (W) 21:25:28 145.860
AO-85 16 Dec 21:33:20 21:37:12 73° 301° (WNW) 21:41:18 145.980
DELFI C3 16 Dec 21:38:03 21:41:32 28° 264° (W) 21:45:00 145.870
EO-88 16 Dec 21:40:37 21:44:10 54° 260° (W) 21:47:47 145.990 - 145.960
BEESAT 2 16 Dec 21:57:42 21:59:27 12° 317° (NW) 22:01:14 435.950
FALCONSAT 3 16 Dec 22:01:48 22:05:15 38° 168° (SSE) 22:08:42 435.103
LO-87 16 Dec 22:03:58 22:07:02 28° 72° (ENE) 22:10:05 145.935 - 145.965
FO-29 16 Dec 22:05:18 22:10:22 23° 300° (WNW) 22:15:01 435.910
ESTCUBE 1 16 Dec 22:12:27 22:16:27 32° 70° (ENE) 22:20:30 437.505/2401.250
PRISM 16 Dec 22:24:49 22:28:42 42° 99° (E) 22:32:34 437.425
TIGRISAT 16 Dec 22:26:07 22:30:22 51° 286° (WNW) 22:34:41 435.000
AIST 2D 16 Dec 22:29:17 22:31:28 15° 93° (E) 22:33:38 435.315
UNISAT 6 16 Dec 22:30:11 22:34:19 42° 287° (WNW) 22:38:31 437.425
RS-15 16 Dec 23:01:13 23:13:01 67° 54° (NE) 23:24:07 29.354- 29.394
POLYITAN 1 16 Dec 23:03:03 23:05:05 13° 92° (E) 23:07:07 437.675
SO-50 16 Dec 23:12:52 23:17:12 37° 52° (NE) 23:21:35 436.795
QB50P2 16 Dec 23:27:34 23:31:15 29° 96° (E) 23:34:56 145.880/145.840
DUCHIFAT 1 16 Dec 23:29:06 23:32:13 20° 95° (E) 23:35:20 145.980
VELOX 1 16 Dec 23:35:05 23:39:09 36° 71° (ENE) 23:43:14 145.980
LO-87 16 Dec 23:38:24 23:40:27 15° 267° (W) 23:42:31 145.935 - 145.965
FALCONSAT 3 16 Dec 23:40:31 23:44:05 49° 183° (S) 23:47:40 435.103
ESTCUBE 1 16 Dec 23:49:46 23:53:16 22° 266° (W) 23:56:48 437.505/2401.250
NANOSAT C BR1 16 Dec 23:56:14 00:00:19 48° 100° (E) 00:04:24 145.865
SPROUT 16 Dec 23:56:30 00:00:44 76° 259° (WSW) 00:04:59 437.525
PRISM 17 Dec 00:01:18 00:03:35 15° 295° (WNW) 00:05:51 437.425
AIST 2D 17 Dec 00:01:36 00:04:38 27° 288° (WNW) 00:07:39 435.315
EO-79 17 Dec 00:13:10 00:17:24 90° 6° (N) 00:21:38 145.935-145.965
DX 1 17 Dec 00:23:25 00:27:02 26° 69° (ENE) 00:30:40 434.975-435.025
POLYITAN 1 17 Dec 00:37:01 00:41:05 47° 287° (WNW) 00:45:09 437.675
Gurwin Techsat 1B 17 Dec 00:42:00 00:44:38 14° 91° (E) 00:47:15 435.225
SO-50 17 Dec 00:53:41 00:57:28 25° 248° (WSW) 01:01:18 436.795
AO-91 17 Dec 01:03:12 01:05:52 21° 96° (E) 01:08:30 145.960
QB50P2 17 Dec 01:03:36 01:06:53 22° 292° (WNW) 01:10:08 145.880/145.840
DUCHIFAT 1 17 Dec 01:04:12 01:07:53 30° 290° (WNW) 01:11:34 145.980
VELOX 1 17 Dec 01:12:29 01:15:40 19° 266° (W) 01:18:52 145.980
RS-15 17 Dec 01:14:44 01:24:29 33° 256° (WSW) 01:33:53 29.354- 29.394
Oscar 19 17 Dec 01:17:40 01:22:37 43° 99° (E) 01:27:33 437.125/150
FALCONSAT 3 17 Dec 01:19:41 01:22:50 27° 198° (SSW) 01:26:00 435.103
50 SAT 17 Dec 01:31:05 01:34:02 36° 261° (W) 01:37:01 437.505
ITUPSAT 1 17 Dec 01:31:56 01:34:18 14° 63° (ENE) 01:36:41 437.325
NANOSAT C BR1 17 Dec 01:33:27 01:35:35 14° 295° (WNW) 01:37:43 145.865
BUGSAT 1 17 Dec 01:34:18 01:38:18 60° 285° (WNW) 01:42:19 437.445
UKube-1 17 Dec 01:37:24 01:41:43 77° 257° (WSW) 01:46:04 .
MOZHAYETS 4 17 Dec 01:53:51 01:57:52 32° 70° (ENE) 02:01:54
DX 1 17 Dec 01:59:25 02:03:06 26° 264° (W) 02:06:48 434.975-435.025
Gurwin Techsat 1B 17 Dec 02:19:44 02:25:01 68° 287° (WNW) 02:30:17 435.225
YUBILEINY 17 Dec 02:23:44 02:32:11 54° 90° (E) 02:40:43 435.215
PCSat 17 Dec 02:32:28 02:37:10 29° 52° (NE) 02:41:51 145.827
BEESAT 17 Dec 02:36:43 02:41:24 65° 74° (ENE) 02:46:08 436.000
AO-7 17 Dec 02:37:45 02:44:41 28° 96° (E) 02:51:34 .
ITAMSAT 1 17 Dec 02:37:49 02:39:44 12° 90° (E) 02:41:38 435.822/435.867
AO-91 17 Dec 02:39:59 02:42:13 17° 292° (WNW) 02:44:27 145.960
Oscar 19 17 Dec 02:57:39 03:01:37 22° 295° (WNW) 03:05:34 437.125/150
ITUPSAT 1 17 Dec 03:06:52 03:11:35 63° 259° (W) 03:16:17 437.325
CUBESAT XI-V 17 Dec 03:23:22 03:27:59 68° 75° (ENE) 03:32:40 437.345
KKS-1 17 Dec 03:26:22 03:28:37 14° 64° (ENE) 03:30:54 437.445
MOZHAYETS 4 17 Dec 03:31:27 03:35:01 23° 265° (W) 03:38:37
BEESAT 3 17 Dec 03:49:40 03:53:13 31° 52° (NE) 03:56:42 437.485
M-CUBED/EXP-1 PRIME 17 Dec 03:52:17 03:56:44 72° 107° (ESE) 04:00:51 437.505
STARS 17 Dec 04:02:00 04:03:57 13° 63° (ENE) 04:05:54 437.465
JUGNU 17 Dec 04:13:52 04:15:33 11° 179° (S) 04:17:14 437.505
ITAMSAT 1 17 Dec 04:14:31 04:19:41 74° 286° (WNW) 04:24:50 435.822/435.867
PCSat 17 Dec 04:15:37 04:20:37 39° 250° (WSW) 04:25:35 145.827
DOVE 4 17 Dec 04:17:32 04:20:56 22° 93° (E) 04:24:13 437.250
BEESAT 17 Dec 04:17:48 04:19:34 12° 269° (W) 04:21:22 436.000
YUBILEINY 17 Dec 04:21:42 04:29:19 32° 289° (WNW) 04:37:01 435.215
AO-85 17 Dec 04:27:00 04:28:09 11° 40° (NE) 04:29:19 145.980
NO-84 17 Dec 04:28:11 04:29:05 11° 123° (ESE) 04:30:01 435.350 FM
AO-7 17 Dec 04:29:38 04:37:50 62° 293° (WNW) 04:46:02 .
BEESAT 2 17 Dec 04:36:11 04:39:43 28° 51° (NE) 04:43:10 435.950
KKS-1 17 Dec 05:00:19 05:04:41 55° 259° (W) 05:09:05 437.445
CUBESAT XI-V 17 Dec 05:04:32 05:05:47 11° 270° (W) 05:07:03 437.345
XW-2D 17 Dec 05:08:41 05:10:16 12° 92° (E) 05:11:49 145.860 - 145.880
XW-2B 17 Dec 05:23:42 05:26:23 18° 94° (E) 05:29:03 145.730 - 145.750
BEESAT 3 17 Dec 05:27:40 05:30:31 20° 249° (WSW) 05:33:19 437.485
M-CUBED/EXP-1 PRIME 17 Dec 05:28:50 05:30:23 12° 304° (NW) 05:31:54 437.505
XW-2F 17 Dec 05:33:00 05:36:01 22° 95° (E) 05:39:01 145.980 - 146.000
STARS 17 Dec 05:35:27 05:39:46 58° 259° (W) 05:44:06 437.465
XW-2C 17 Dec 05:50:29 05:54:08 39° 98° (E) 05:57:45 145.795 - 145.815
DOVE 4 17 Dec 05:54:52 05:58:38 28° 291° (WNW) 06:02:16 437.250
CUTE-I 17 Dec 05:59:54 06:04:54 40° 98° (E) 06:09:51 437.470
NO-84 17 Dec 06:03:02 06:05:52 44° 320° (NW) 06:08:54 435.350 FM
AO-85 17 Dec 06:04:34 06:09:23 65° 57° (ENE) 06:14:32 145.980
HO-68 17 Dec 06:06:32 06:12:06 24° 94° (E) 06:17:36 435.675
BEESAT 2 17 Dec 06:14:04 06:17:17 23° 248° (WSW) 06:20:27 435.950
AO-7 17 Dec 06:25:22 06:28:55 13° 313° (NW) 06:32:28 .
FO-29 17 Dec 06:28:46 06:35:06 28° 63° (ENE) 06:41:24 435.910
STRAND 1 17 Dec 06:29:24 06:34:24 56° 73° (ENE) 06:39:24 437.568
LilacSat-2 17 Dec 06:30:23 06:34:12 54° 285° (WNW) 06:37:58 437.200
NUDT-PHONESAT 17 Dec 06:32:51 06:36:37 85° 279° (W) 06:40:21 437.300
XW-2D 17 Dec 06:40:57 06:44:36 41° 287° (WNW) 06:48:14 145.860 - 145.880
KAITUO 1B 17 Dec 06:41:42 06:45:28 61° 284° (WNW) 06:49:10 145.475/437.950
SRMSAT 17 Dec 06:54:28 06:56:25 12° 178° (S) 06:58:22 437.500
SEEDS 17 Dec 06:55:47 06:59:39 33° 97° (E) 07:03:27 437.485
XW-2B 17 Dec 06:57:13 07:00:32 28° 289° (WNW) 07:03:50 145.730 - 145.750
UWE-3 17 Dec 06:59:32 07:02:50 21° 94° (E) 07:06:11 435.000/436.395/437.385
CUBEBUG 2 17 Dec 07:05:11 07:09:17 42° 99° (E) 07:13:30 437.445
AAUSAT CUBESAT 2 17 Dec 07:06:43 07:09:35 18° 93° (E) 07:12:26 437.432
XW-2F 17 Dec 07:06:58 07:10:01 23° 290° (WNW) 07:13:04 145.980 - 146.000
ZACube-1 17 Dec 07:18:28 07:21:25 17° 93° (E) 07:24:24 437.345
O/OREOS (USA 219) 17 Dec 07:19:33 07:23:45 37° 105° (ESE) 07:27:59 437.305
CUTE 1.7 + AOD 2 17 Dec 07:24:05 07:28:21 66° 285° (WNW) 07:32:34 437.475
XW-2C 17 Dec 07:25:58 07:27:55 14° 294° (WNW) 07:29:52 145.795 - 145.815
Oscar 11 17 Dec 07:33:48 07:36:04 14° 92° (E) 07:38:18 .
CUTE-I 17 Dec 07:40:27 07:44:41 25° 294° (WNW) 07:48:54 437.470
AO-85 17 Dec 07:46:31 07:49:24 15° 251° (WSW) 07:52:21 145.980
AO-73 17 Dec 07:49:46 07:53:47 34° 97° (E) 07:57:51 145.935
HO-68 17 Dec 07:53:11 08:00:13 61° 290° (WNW) 08:07:12 435.675
UNISAT 6 17 Dec 07:53:39 07:55:21 12° 64° (ENE) 07:57:02 437.425
XW-2A 17 Dec 07:56:32 07:59:59 77° 103° (ESE) 08:03:24 145.665 - 145.685
STRAND 1 17 Dec 08:10:52 08:13:54 16° 268° (W) 08:16:56 437.568
FO-29 17 Dec 08:11:48 08:19:29 65° 259° (W) 08:27:17 435.910
SEEDS 17 Dec 08:32:01 08:35:04 19° 292° (WNW) 08:38:05 437.485
UWE-3 17 Dec 08:35:24 08:39:18 33° 289° (WNW) 08:43:17 435.000/436.395/437.385
AAUSAT CUBESAT 2 17 Dec 08:41:21 08:45:06 33° 288° (WNW) 08:48:48 437.432
CUBEBUG 2 17 Dec 08:42:54 08:45:34 16° 293° (WNW) 08:48:16 437.445
SRMSAT 17 Dec 08:44:23 08:44:39 10° 188° (S) 08:44:56 437.500
Max Valier Satellite 17 Dec 08:51:10 08:52:16 11° 91° (E) 08:53:21 145.860
ZACube-1 17 Dec 08:53:43 08:57:48 39° 287° (WNW) 09:01:58 437.345
O/OREOS (USA 219) 17 Dec 08:59:48 09:03:16 21° 301° (WNW) 09:06:45 437.305
nSIGHT-1 17 Dec 09:04:17 09:05:59 14° 129° (SE) 09:07:42 .
Oscar 11 17 Dec 09:08:13 09:12:26 48° 286° (WNW) 09:16:36 .
EO-88 17 Dec 09:11:36 09:13:24 13° 92° (E) 09:15:13 145.990 - 145.960
PRISM 17 Dec 09:12:43 09:16:10 26° 69° (ENE) 09:19:37 437.425
DELFI C3 17 Dec 09:15:29 09:19:08 35° 97° (E) 09:22:44 145.870
TIGRISAT 17 Dec 09:23:11 09:27:26 71° 258° (WSW) 09:31:41 435.000
AO-73 17 Dec 09:26:30 09:29:46 21° 292° (WNW) 09:33:06 145.935
